{"data":{"norad_id":53278,"epoch":"2026-09-19T08:25:19.755840Z","epoch_age_seconds":174691,"freshness":"STALE","line1":"1 53278U 22086AN  26262.35092310 -.00000506  00000+0 -45353-5 0  9991","line2":"2 53278  53.1608  21.2211 0001099  87.0720 273.0407 15.31700460230614","mean_motion":15.3170046,"eccentricity":0.0001099,"inclination_deg":53.1608,"raan_deg":21.2211,"arg_perigee_deg":87.072,"mean_anomaly_deg":273.0407,"bstar":-4.5353e-6,"rev_number":23061,"period_min":94.013159727066,"perigee_km":469.98593255885,"apogee_km":471.491315421,"semimajor_km":6848.8756239899,"source":"CELESTRAK","updated_at":"2026-09-20T09:00:40.219367Z"}}